Погода в Кыштовке

Погода в Кыштовке : погода сейчас, прогноз погоды и архив. Всё, что Вы хотите узнать о погоде в Кыштовке!

Хотите узнать прогноз погоды в Кыштовке? Тогда Вам сюда: Погода в Кыштовке

Поиск расширенной информации на нашем сайте:

Другие новости

Новости СМИ2

Главная страница сайта

Новости сайта

03.07.2017

Напоминаем, что на нашем специализированном сайте Метеоцентр.Азия вы можете получить высокодетализированные автоматические прогнозы погоды по пунктам России, СНГ и мира в авиационном формате (включающие направление и скорость ветра, видимость, явления погоды, количество и форму облачности, нижнюю и верхнюю границу облачности).


Погода в Кыштовке - сегодня

Время (UTC), дата Ветер
(°,м/с) 
Видим.   Явления Облачность Т
(°С)
Тd
(°С)
f(%) Тe
(°С)
Pmin
(гПа)
dP
(гПа)
Po
(мм)
O2
(г/м3)
Тmin Tmax R s Состояние
почвы
00 18.11.17 180 (Ю) 10 км    10/10 360 м кучево-дожд. 
[Cb calv]
+0.4 -0.6 93 1017.3  -0.9  752  303  +0.3      13  равномерный
сухой снег
100% 
03 18.11.17 160 (Ю) 10 км    10/10 240 м кучево-дожд. 
[Cb calv]
+0.5 -0.8 91 1016.6  -0.6  752  302           
06 18.11.17 160 (Ю) 4000 м  слаб. ливневой снег  10/10 300 м кучево-дожд. 
[Cb calv]
+0.5 -0.7 92 1014.9  -1.8  750  302           
09 18.11.17 160 (Ю) 0500 м  ливневой снег  10/10 270 м кучево-дожд. 
[Cb calv]
-0 -1 93 +1  1013.2  -1.7  749  302           
12 18.11.17 200 (Ю) 4000 м  слаб. ливневой снег  10/10 360 м кучево-дожд. 
[Cb calv]
-0.4 -1.3 94 1012.6  -0.5  749  302    +0.6     
15 18.11.17 300 (СЗ) 10 км  {ливн. осадки}  10/8 300 м кучево-дожд., средняя 
[Cb calv|Ac trans]
-0.4 -1.3 94 -3  1013  0.3  749  302           
18 18.11.17 300 (СЗ) 10 км  {ливн. осадки}  4/3 600 м кучево-дожд., средняя 
[Cb calv|Ac trans]
-1.8 -4.2 84 -4  1015.2  2.1  750  305           
21 18.11.17 270 (З) 10 км    1/0 средняя 
[Ac trans]
-2.7 -4.7 86 -5  1017.7  2.5  752  307           
00 19.11.17 310 (СЗ) 10 км    ясно 
-4.5 -6.6 85 -8  1020.5  2.6  754  310  -4.5    21  равномерный
сухой снег
100% 
03 19.11.17 280 (З) 10 км    10/10 360 м кучево-дожд. 
[Cb calv]
-5.2 -7.5 84 -8  1023  2.4  756  311  -5.4         
06 19.11.17 230 (ЮЗ) 10 км  {ливн. осадки}  10/4 300 м кучево-дожд., верхняя 
[Cb calv|Ci fib]
-5 -7.7 81 -7  1024.4  1.4  757  312           
09 19.11.17 230 (ЮЗ) 10 км    10/10 540 м кучево-дожд. 
[Cb calv]
-3.8 -6.2 83 -6  1024.9  0.5  757  310           
12 19.11.17 180 (Ю) 4000 м  слаб. ливневой снег  10/8 300 м кучево-дожд., средняя 
[Cb calv|Ac trans]
-4.8 -6.3 89 -6  1025.6  0.7  758  312    -3.8  0.0     
15 19.11.17 220 (ЮЗ) 10 км  в посл. час ливневой снег  10/10 420 м кучево-дожд. 
[Cb calv]
-4.2 -5.5 91 -6  1025.8  0.2  758  311           
18 19.11.17 220 (ЮЗ) 4000 м  слаб. ливневой снег  10/10 330 м кучево-дожд. 
[Cb calv]
-3.8 -5 91 -5  1026.2  0.5  758  311           
21 19.11.17 240 (ЮЗ) 10 км  {ливн. осадки}  10/10 300 м кучево-дожд. 
[Cb calv]
-2.4 -3.6 91 -4  1027.4  1.2  759  309           
00 20.11.17 240 (ЮЗ) 4000 м  слаб. ливневой снег  10/10 300 м кучево-дожд. 
[Cb calv]
-2.2 -3.3 92 -4  1028.6  1.2  760  309  -4.8    21  равномерный
сухой снег
100% 
03 20.11.17 230 (ЮЗ) 10 км  {ливн. осадки}  10/10 270 м кучево-дожд. 
[Cb calv]
-1.9 -3 92 -4  1029.2  0.6  761  309           
06 20.11.17 240 (ЮЗ) 10 км  в посл. час ливневой снег  10/9 300 м кучево-дожд., средняя 
[Cb calv|Ac trans]
-0.8 -2.6 88 -4  1029.9  0.8  761  308           
09 20.11.17 220 (ЮЗ) 10 км  в посл. час ливневой снег  10/8 600 м кучево-дожд., средняя 
[Cb calv|Ac trans]
-0.7 -2.7 86 -3  1030.1  0.2  761  308           
12 20.11.17 200 (Ю) 10 км  {ливн. осадки}  8/4 600 м кучево-дожд., средняя 
[Cb calv|Ac trans]
-3.7 -4.8 92 -3  1030.3  761  312    -0.5  0.2     
15 20.11.17 200 (Ю) 4000 м  слаб. ливневой снег  10/8 600 м кучево-дожд., средняя 
[Cb calv|Ac trans]
-2.2 -3.4 91 -3  1029.6  -0.6  761  310           
18 20.11.17 220 (ЮЗ) 4000 м  слаб. ливневой снег  10/8 600 м кучево-дожд., средняя 
[Cb calv|Ac trans]
-1.2 -2.2 93 -3  1028.9  -0.6  761  308           
21 20.11.17 230 (ЮЗ) 4000 м  слаб. ливневой снег  10/6 600 м кучево-дожд., средняя 
[Cb calv|Ac trans]
-0.9 -2 92 -3  1029.2  0.3  761  308           
00 21.11.17 240 (ЮЗ) 10 км  {ливн. осадки}  10/8 600 м кучево-дожд., средняя 
[Cb calv|Ac trans]
-1.3 -3 88 -3  1029.8  0.5  761  309  -4.3    0.3  22  равномерный
сухой снег
100% 
Время (UTC), дата Ветер
(°,м/с) 
Видим.   Явления Облачность Т
(°С)
Тd
(°С)
f(%) Тe
(°С)
Pmin
(гПа)
dP
(гПа)
Po
(мм)
O2
(г/м3)
Тmin Tmax R s Состояние
почвы

Для получения пояснительной информации подведите курсор к названию столбца.

ПОГОДА в Кыштовке - архив

Всё, что Вы хотите узнать о погоде в Кыштовке - удобно и подробно!

Выберите нужную дату (начиная с 1 января 2015* года) и нажмите кнопку "Найти".
Будут отображены архивные сводки погоды по пункту Кыштовка, начиная с указанной даты.


Отображать данные в формате CSV (для использования в таблицах Excel)


Внимание! Наш архив погоды предназначен исключительно для личного некоммерческого использования в познавательных целях. Если Вам необходимы официальные справки о состоянии погоды (для производственных, юридических, коммерческих и т.п. целей), обращайтесь в органы Росгидромета.

*Примечание: данная дата относится к архиву по метеостанциям СССР (Россия, СНГ, Балтия).
Архив по метеостанциям Зарубежной Европы и Азии (кроме Китая) хранится 10 дней, по другим регионам земного шара (Китай, Африка, Америка, Австралия, Океания) - 1 день.

Кыштовка - район местоположения метеостанции


Название, широта, долгота, высота метеостанции:
Кыштовка 56.6°ш. 76.9°д. 116 м над ур. моря [Российская Федерация]

Дополнительная информация

В oтличие oт бoльшинства пoгoдных сайтoв мы публикуем пoдрoбную метеoинфoрмацию в детальнoм прoфессиoнальнoм фoрмате.

Характеристики температуры и влажнoсти вoздуха измеряются на высoте 2 м в тени вдали oт зданий и деревьев.
Скoрoсть ветра измеряется на высoте 10 м (на урoвне рoста челoвека скoрoсть ветра ниже в 1.5-2 раза). Если метеoстанция нахoдится в гoрoде или в лесу, тo скoрoсть ветра занижена на 2-4 м/с пo сравнению с oткрытым местoм. Скoрoсть ветра над акватoриями крупных рек и oзёр, а также на вершинах хoлмoв на 2-5 м/с выше, чем в oбычных услoвиях.
Атмoсфернoе давление в разных тoчках местнoсти мoжет значительнo oтличаться oт давления на метеoстанции, в зависимoсти oт услoвий рельефа (при пoдъёме на 10 м давление пoнижается примернo на 1 мм рт.ст.).